.
WxDataArchive / Data Records for 2015-01-22
2015-01-21 January 2015 2015-01-23

Data Records for Thursday, 22 January 2015

Time	Temp	Chill	HIndex	Humid	Dewpt	 Wind 	HiWind	WindDir	Rain 	Barom
-----	----	-----	------	-----	-----	------	------	-------	-----	-----
00:00	30.9	30.9	30.9	91	28.6	1	4	315	0.00	30.208 
00:05	30.9	30.9	30.9	91	28.6	1	2	315	0.00	30.208 
00:10	30.9	30.9	30.9	91	28.6	0	2	315	0.00	30.208 
00:15	30.9	30.9	30.9	91	28.6	1	2	315	0.00	30.209 
00:20	30.9	30.9	30.9	91	28.6	0	2	315	0.00	30.209 
00:25	30.7	30.7	30.7	91	28.4	1	2	315	0.00	30.209 
00:30	30.7	30.7	30.7	91	28.4	1	5	338	0.00	30.207 
00:35	30.7	30.7	30.7	91	28.4	1	4	292	0.00	30.207 
00:40	30.6	30.6	30.6	91	28.3	1	3	292	0.00	30.207 
00:45	30.6	30.6	30.6	91	28.3	0	2	292	0.00	30.210 
00:50	30.6	30.6	30.6	91	28.3	1	3	292	0.00	30.210 
00:55	30.6	30.6	30.6	90	28.0	0	2	292	0.00	30.210 
01:00	30.6	30.6	30.6	90	28.0	0	2	292	0.00	30.211 
01:05	30.6	30.6	30.6	90	28.0	0	2	292	0.00	30.211 
01:10	30.6	30.6	30.6	89	27.8	0	2	292	0.00	30.211 
01:15	30.6	30.6	30.6	89	27.8	1	3	292	0.00	30.212 
01:20	30.7	30.7	30.7	89	27.8	0	2	292	0.00	30.212 
01:25	30.7	30.7	30.7	88	27.6	0	2	292	0.00	30.212 
01:30	30.7	30.7	30.7	88	27.6	0	2	292	0.00	30.214 
01:35	30.7	30.7	30.7	88	27.6	0	2	292	0.00	30.214 
01:40	30.7	30.7	30.7	88	27.6	1	3	292	0.00	30.214 
01:45	30.7	30.7	30.7	87	27.3	0	1	315	0.00	30.223 
01:50	30.7	30.7	30.7	87	27.3	1	2	315	0.00	30.223 
01:55	30.7	30.7	30.7	87	27.3	1	3	315	0.00	30.223 
02:00	30.7	30.7	30.7	86	27.0	1	3	315	0.00	30.227 
02:05	30.7	30.7	30.7	86	27.0	1	3	315	0.00	30.227 
02:10	30.7	30.7	30.7	86	27.0	1	3	315	0.00	30.227 
02:15	30.7	30.7	30.7	86	27.0	1	4	315	0.00	30.230 
02:20	30.7	30.7	30.7	86	27.0	1	3	315	0.00	30.230 
02:25	30.6	30.6	30.6	86	26.9	1	4	338	0.00	30.230 
02:30	30.6	30.6	30.6	85	26.6	1	5	292	0.00	30.241 
02:35	30.6	30.6	30.6	85	26.6	1	3	292	0.00	30.241 
02:40	30.6	30.6	30.6	84	26.4	1	4	292	0.00	30.241 
02:45	30.6	30.6	30.6	84	26.4	1	4	292	0.00	30.247 
02:50	30.6	30.6	30.6	83	26.1	0	2	315	0.00	30.247 
02:55	30.6	30.6	30.6	83	26.1	0	1	315	0.00	30.247 
03:00	30.6	30.6	30.6	83	26.1	1	2	315	0.00	30.253 
03:05	30.6	30.6	30.6	83	26.1	0	2	315	0.00	30.253 
03:10	30.4	30.4	30.4	83	25.9	1	5	315	0.00	30.253 
03:15	30.4	30.4	30.4	83	25.9	1	3	0	0.00	30.258 
03:20	30.4	30.4	30.4	82	25.6	1	3	338	0.00	30.258 
03:25	30.4	30.4	30.4	82	25.6	1	5	338	0.00	30.258 
03:30	30.4	30.4	30.4	82	25.6	1	2	338	0.00	30.260 
03:35	30.4	30.4	30.4	82	25.6	0	2	338	0.00	30.260 
03:40	30.4	30.4	30.4	81	25.3	1	4	338	0.00	30.260 
03:45	30.3	30.3	30.3	80	24.9	2	4	292	0.00	30.264 
03:50	30.3	30.3	30.3	79	24.6	2	4	270	0.00	30.264 
03:55	30.3	30.3	30.3	79	24.6	2	4	270	0.00	30.264 
04:00	30.1	30.1	30.1	78	24.1	1	4	292	0.00	30.265 
04:05	30.1	30.1	30.1	78	24.1	1	3	292	0.00	30.265 
04:10	30.1	30.1	30.1	77	23.8	1	3	292	0.00	30.265 
04:15	30.1	30.1	30.1	77	23.8	2	5	338	0.00	30.271 
04:20	30.1	30.1	30.1	77	23.8	1	3	338	0.00	30.271 
04:25	30.1	30.1	30.1	77	23.8	1	3	292	0.00	30.271 
04:30	30.1	30.1	30.1	77	23.8	1	3	292	0.00	30.275 
04:35	30.1	30.1	30.1	77	23.8	2	3	292	0.00	30.275 
04:40	30.1	30.1	30.1	76	23.5	1	3	292	0.00	30.275 
04:45	30.1	30.1	30.1	76	23.5	2	10	292	0.00	30.277 
04:50	30.1	30.1	30.1	75	23.2	2	5	292	0.00	30.277 
04:55	30.1	30.1	30.1	76	23.5	1	5	315	0.00	30.277 
05:00	30.1	30.1	30.1	76	23.5	1	4	338	0.00	30.277 
05:05	30.1	30.1	30.1	76	23.5	1	4	292	0.00	30.277 
05:10	30.1	30.1	30.1	77	23.8	1	4	270	0.00	30.277 
05:15	30.1	30.1	30.1	77	23.8	1	5	315	0.00	30.280 
05:20	30.1	30.1	30.1	77	23.8	1	3	315	0.00	30.280 
05:25	30.1	30.1	30.1	77	23.8	0	2	338	0.00	30.280 
05:30	30.1	30.1	30.1	77	23.8	0	1	338	0.00	30.283 
05:35	30.1	30.1	30.1	77	23.8	1	3	22	0.00	30.283 
05:40	30.1	30.1	30.1	77	23.8	0	4	0	0.00	30.283 
05:45	30.1	30.1	30.1	77	23.8	0	3	0	0.00	30.291 
05:50	30.1	30.1	30.1	77	23.8	0	2	292	0.00	30.291 
05:55	30.1	30.1	30.1	78	24.1	0	4	292	0.00	30.291 
06:00	30.1	30.1	30.1	78	24.1	0	2	292	0.00	30.296 
06:05	30.1	30.1	30.1	78	24.1	0	2	292	0.00	30.296 
06:10	30.1	30.1	30.1	78	24.1	0	2	292	0.00	30.296 
06:15	30.1	30.1	30.1	78	24.1	0	2	292	0.00	30.308 
06:20	30.1	30.1	30.1	78	24.1	0	2	292	0.00	30.308 
06:25	30.1	30.1	30.1	78	24.1	1	3	292	0.00	30.308 
06:30	30.1	30.1	30.1	78	24.1	0	2	315	0.00	30.311 
06:35	30.1	30.1	30.1	78	24.1	0	3	315	0.00	30.311 
06:40	30.1	30.1	30.1	78	24.1	0	1	315	0.00	30.311 
06:45	30.1	30.1	30.1	78	24.1	0	1	315	0.00	30.320 
06:50	30.1	30.1	30.1	79	24.4	0	1	315	0.00	30.320 
06:55	30.1	30.1	30.1	79	24.4	0	1	315	0.00	30.320 
07:00	30.1	30.1	30.1	79	24.4	0	1	315	0.00	30.329 
07:05	30.1	30.1	30.1	79	24.4	0	1	315	0.00	30.329 
07:10	30.1	30.1	30.1	79	24.4	0	1	315	0.00	30.329 
07:15	30.1	30.1	30.1	79	24.4	0	1	315	0.00	30.340 
07:20	30.1	30.1	30.1	79	24.4	0	2	315	0.00	30.340 
07:25	30.1	30.1	30.1	79	24.4	0	2	315	0.00	30.340 
07:30	30.3	30.3	30.3	79	24.6	0	1	315	0.00	30.353 
07:35	30.3	30.3	30.3	79	24.6	0	3	292	0.00	30.353 
07:40	30.3	30.3	30.3	79	24.6	0	1	292	0.00	30.353 
07:45	30.3	30.3	30.3	79	24.6	0	2	292	0.00	30.355 
07:50	30.3	30.3	30.3	79	24.6	0	1	292	0.00	30.355 
07:55	30.3	30.3	30.3	79	24.6	0	0	---	0.00	30.355 
08:00	30.3	30.3	30.3	79	24.6	0	0	---	0.00	30.361 
08:05	30.3	30.3	30.3	79	24.6	0	1	292	0.00	30.361 
08:10	30.3	30.3	30.3	79	24.6	0	1	292	0.00	30.361 
08:15	30.3	30.3	30.3	79	24.6	0	1	292	0.00	30.369 
08:20	30.4	30.4	30.4	79	24.7	0	0	---	0.00	30.369 
08:25	30.4	30.4	30.4	79	24.7	0	3	292	0.00	30.369 
08:30	30.4	30.4	30.4	80	25.0	0	1	292	0.00	30.377 
08:35	30.4	30.4	30.4	80	25.0	0	1	292	0.00	30.377 
08:40	30.3	30.3	30.3	80	24.9	0	1	292	0.00	30.377 
08:45	30.3	30.3	30.3	81	25.2	0	2	292	0.00	30.382 
08:50	30.3	30.3	30.3	81	25.2	0	2	292	0.00	30.382 
08:55	30.3	30.3	30.3	81	25.2	0	2	292	0.00	30.382 
09:00	30.3	30.3	30.3	81	25.2	0	2	292	0.00	30.390 
09:05	30.3	30.3	30.3	81	25.2	0	1	292	0.00	30.390 
09:10	30.3	30.3	30.3	81	25.2	0	2	292	0.00	30.390 
09:15	30.3	30.3	30.3	81	25.2	0	0	---	0.00	30.404 
09:20	30.3	30.3	30.3	81	25.2	0	1	292	0.00	30.404 
09:25	30.3	30.3	30.3	81	25.2	0	2	292	0.00	30.404 
09:30	30.3	30.3	30.3	82	25.5	0	1	292	0.00	30.409 
09:35	30.3	30.3	30.3	82	25.5	0	1	292	0.00	30.409 
09:40	30.3	30.3	30.3	82	25.5	0	0	---	0.00	30.409 
09:45	30.3	30.3	30.3	82	25.5	0	0	---	0.00	30.417 
09:50	30.4	30.4	30.4	82	25.6	0	1	292	0.00	30.417 
09:55	30.4	30.4	30.4	82	25.6	0	1	292	0.00	30.417 
10:00	30.4	30.4	30.4	82	25.6	0	2	292	0.00	30.419 
10:05	30.4	30.4	30.4	82	25.6	0	0	---	0.00	30.419 
10:10	30.4	30.4	30.4	82	25.6	0	2	202	0.00	30.419 
10:15	30.6	30.6	30.6	83	26.1	0	1	202	0.00	30.422 
10:20	30.6	30.6	30.6	83	26.1	0	1	202	0.00	30.422 
10:25	30.6	30.6	30.6	82	25.8	0	2	202	0.00	30.422 
10:30	30.6	30.6	30.6	83	26.1	0	1	202	0.00	30.422 
10:35	30.7	30.7	30.7	83	26.2	0	1	202	0.00	30.422 
10:40	30.7	30.7	30.7	83	26.2	0	2	202	0.00	30.422 
10:45	30.7	30.7	30.7	83	26.2	0	1	202	0.00	30.420 
10:50	30.7	30.7	30.7	83	26.2	0	1	202	0.00	30.420 
10:55	30.7	30.7	30.7	82	25.9	0	1	202	0.00	30.420 
11:00	30.7	30.7	30.7	82	25.9	0	1	202	0.00	30.418 
11:05	30.9	30.9	30.9	82	26.1	0	1	202	0.00	30.418 
11:10	30.9	30.9	30.9	82	26.1	0	2	202	0.00	30.418 
11:15	30.9	30.9	30.9	82	26.1	0	1	202	0.00	30.419 
11:20	31.0	31.0	31.0	82	26.2	0	2	180	0.00	30.419 
11:25	31.0	31.0	31.0	81	25.9	0	2	180	0.00	30.419 
11:30	31.0	31.0	31.0	81	25.9	0	1	180	0.00	30.418 
11:35	31.2	31.2	31.2	81	26.1	0	2	180	0.00	30.418 
11:40	31.2	31.2	31.2	80	25.8	0	2	180	0.00	30.418 
11:45	31.3	31.3	31.3	80	25.9	0	1	158	0.00	30.412 
11:50	31.6	31.6	31.6	79	25.8	0	2	158	0.00	30.412 
11:55	31.6	31.6	31.6	78	25.5	0	2	158	0.00	30.412 
12:00	31.8	31.8	31.8	77	25.4	0	2	158	0.00	30.409 
12:05	31.8	31.8	31.8	77	25.4	0	2	158	0.00	30.409 
12:10	31.9	31.9	31.9	77	25.5	0	2	158	0.00	30.409 
12:15	31.9	31.9	31.9	77	25.5	0	1	158	0.00	30.407 
12:20	31.9	31.9	31.9	77	25.5	0	3	158	0.00	30.407 
12:25	31.9	31.9	31.9	76	25.2	0	3	248	0.00	30.407 
12:30	31.9	31.9	31.9	75	24.9	0	2	248	0.00	30.407 
12:35	31.9	31.9	31.9	74	24.6	0	2	248	0.00	30.407 
12:40	32.1	32.1	32.1	74	24.8	0	1	248	0.00	30.407 
12:45	32.2	32.2	32.2	73	24.5	0	3	248	0.00	30.406 
12:50	32.1	32.1	32.1	70	23.4	1	4	315	0.00	30.406 
12:55	32.1	32.1	32.1	70	23.4	0	3	315	0.00	30.406 
13:00	32.1	32.1	32.1	69	23.1	1	4	315	0.00	30.410 
13:05	32.1	32.1	32.1	69	23.1	0	2	315	0.00	30.410 
13:10	32.1	32.1	32.1	66	22.0	0	1	315	0.00	30.410 
13:15	32.1	32.1	32.1	65	21.7	0	2	315	0.00	30.404 
13:20	32.2	32.2	32.2	66	22.1	0	1	315	0.00	30.404 
13:25	32.2	32.2	32.2	66	22.1	0	2	315	0.00	30.404 
13:30	32.2	32.2	32.2	66	22.1	0	1	315	0.00	30.404 
13:35	32.2	32.2	32.2	68	22.8	0	2	315	0.00	30.404 
13:40	32.1	32.1	32.1	68	22.7	0	2	315	0.00	30.404 
13:45	31.9	31.9	31.9	68	22.6	0	3	315	0.00	30.405 
13:50	31.9	31.9	31.9	69	22.9	0	2	315	0.00	30.405 
13:55	31.9	31.9	31.9	69	22.9	0	1	315	0.00	30.405 
14:00	31.9	31.9	31.9	69	22.9	0	1	315	0.00	30.404 
14:05	32.1	32.1	32.1	70	23.4	0	1	315	0.00	30.404 
14:10	32.1	32.1	32.1	69	23.1	0	1	315	0.00	30.404 
14:15	32.1	32.1	32.1	69	23.1	0	2	315	0.00	30.405 
14:20	31.9	31.9	31.9	70	23.2	1	3	315	0.00	30.405 
14:25	31.8	31.8	31.8	71	23.5	0	2	315	0.00	30.405 
14:30	31.8	31.8	31.8	72	23.8	0	2	315	0.00	30.406 
14:35	31.8	31.8	31.8	71	23.5	0	2	315	0.00	30.406 
14:40	31.8	31.8	31.8	72	23.8	0	1	315	0.00	30.406 
14:45	31.8	31.8	31.8	71	23.5	0	2	315	0.00	30.422 
14:50	31.8	31.8	31.8	72	23.8	0	2	315	0.00	30.422 
14:55	31.8	31.8	31.8	72	23.8	0	2	315	0.00	30.422 
15:00	31.8	31.8	31.8	73	24.1	0	2	315	0.00	30.430 
15:05	31.6	31.6	31.6	73	24.0	0	2	315	0.00	30.430 
15:10	31.8	31.8	31.8	73	24.1	0	1	315	0.00	30.430 
15:15	31.8	31.8	31.8	73	24.1	1	3	315	0.00	30.435 
15:20	31.8	31.8	31.8	72	23.8	1	3	315	0.00	30.435 
15:25	31.6	31.6	31.6	71	23.3	0	2	315	0.00	30.435 
15:30	31.8	31.8	31.8	69	22.8	1	2	315	0.00	30.433 
15:35	31.8	31.8	31.8	69	22.8	1	4	315	0.00	30.433 
15:40	31.8	31.8	31.8	68	22.5	0	2	338	0.00	30.433 
15:45	31.8	31.8	31.8	67	22.1	0	3	338	0.00	30.426 
15:50	31.8	31.8	31.8	66	21.8	1	3	338	0.00	30.426 
15:55	31.8	31.8	31.8	66	21.8	0	3	338	0.00	30.426 
16:00	31.8	31.8	31.8	66	21.8	0	1	338	0.00	30.433 
16:05	31.8	31.8	31.8	66	21.8	0	2	338	0.00	30.433 
16:10	31.8	31.8	31.8	66	21.8	0	2	338	0.00	30.433 
16:15	31.8	31.8	31.8	66	21.8	0	1	338	0.00	30.437 
16:20	31.8	31.8	31.8	66	21.8	0	1	338	0.00	30.437 
16:25	31.8	31.8	31.8	66	21.8	0	1	338	0.00	30.437 
16:30	31.8	31.8	31.8	65	21.4	0	2	338	0.00	30.439 
16:35	31.6	31.6	31.6	65	21.2	0	3	338	0.00	30.439 
16:40	31.6	31.6	31.6	64	20.8	1	2	338	0.00	30.439 
16:45	31.6	31.6	31.6	65	21.2	0	2	338	0.00	30.435 
16:50	31.5	31.5	31.5	64	20.7	0	3	338	0.00	30.435 
16:55	31.5	31.5	31.5	65	21.1	0	0	---	0.00	30.435 
17:00	31.5	31.5	31.5	65	21.1	0	1	338	0.00	30.432 
17:05	31.5	31.5	31.5	65	21.1	0	1	338	0.00	30.432 
17:10	31.5	31.5	31.5	66	21.5	0	1	338	0.00	30.432 
17:15	31.3	31.3	31.3	66	21.3	0	0	---	0.00	30.432 
17:20	31.3	31.3	31.3	65	20.9	0	0	---	0.00	30.432 
17:25	31.3	31.3	31.3	65	20.9	0	1	338	0.00	30.432 
17:30	31.3	31.3	31.3	66	21.3	0	0	---	0.00	30.436 
17:35	31.3	31.3	31.3	67	21.6	0	0	---	0.00	30.436 
17:40	31.3	31.3	31.3	67	21.6	0	1	338	0.00	30.436 
17:45	31.2	31.2	31.2	67	21.5	0	1	338	0.00	30.436 
17:50	31.2	31.2	31.2	67	21.5	0	1	338	0.00	30.436 
17:55	31.2	31.2	31.2	67	21.5	0	1	338	0.00	30.436 
18:00	31.2	31.2	31.2	67	21.5	0	1	338	0.00	30.437 
18:05	31.0	31.0	31.0	67	21.3	0	0	---	0.00	30.437 
18:10	31.0	31.0	31.0	67	21.3	0	0	---	0.00	30.437 
18:15	31.0	31.0	31.0	67	21.3	0	1	338	0.00	30.437 
18:20	30.9	30.9	30.9	67	21.3	0	0	---	0.00	30.437 
18:25	30.9	30.9	30.9	67	21.3	0	1	338	0.00	30.437 
18:30	30.9	30.9	30.9	67	21.3	0	0	---	0.00	30.437 
18:35	30.7	30.7	30.7	67	21.1	0	0	---	0.00	30.437 
18:40	30.7	30.7	30.7	67	21.1	0	0	---	0.00	30.437 
18:45	30.7	30.7	30.7	67	21.1	0	0	---	0.00	30.437 
18:50	30.7	30.7	30.7	67	21.1	0	0	---	0.00	30.437 
18:55	30.6	30.6	30.6	67	21.0	0	0	---	0.00	30.437 
19:00	30.6	30.6	30.6	67	21.0	0	1	338	0.00	30.434 
19:05	30.6	30.6	30.6	66	20.6	0	2	338	0.00	30.434 
19:10	30.6	30.6	30.6	66	20.6	0	1	338	0.00	30.434 
19:15	30.6	30.6	30.6	67	21.0	0	0	---	0.00	30.437 
19:20	30.6	30.6	30.6	67	21.0	0	1	338	0.00	30.437 
19:25	30.6	30.6	30.6	67	21.0	0	1	338	0.00	30.437 
19:30	30.6	30.6	30.6	67	21.0	0	1	338	0.00	30.445 
19:35	30.6	30.6	30.6	68	21.3	0	0	---	0.00	30.445 
19:40	30.4	30.4	30.4	68	21.1	0	0	---	0.00	30.445 
19:45	30.4	30.4	30.4	68	21.1	0	1	338	0.00	30.451 
19:50	30.4	30.4	30.4	68	21.1	0	0	---	0.00	30.451 
19:55	30.4	30.4	30.4	68	21.1	0	2	338	0.00	30.451 
20:00	30.4	30.4	30.4	68	21.1	0	1	338	0.00	30.437 
20:05	30.4	30.4	30.4	68	21.1	0	0	---	0.00	30.437 
20:10	30.3	30.3	30.3	68	21.0	0	0	---	0.00	30.437 
20:15	30.3	30.3	30.3	68	21.0	0	0	---	0.00	30.433 
20:20	30.3	30.3	30.3	68	21.0	0	0	---	0.00	30.433 
20:25	30.1	30.1	30.1	68	20.8	0	0	---	0.00	30.433 
20:30	30.1	30.1	30.1	69	21.2	0	0	---	0.00	30.437 
20:35	30.1	30.1	30.1	69	21.2	0	2	338	0.00	30.437 
20:40	30.1	30.1	30.1	68	20.8	0	1	338	0.00	30.437 
20:45	30.3	30.3	30.3	68	21.0	0	0	---	0.00	30.438 
20:50	30.3	30.3	30.3	69	21.4	0	1	338	0.00	30.438 
20:55	30.3	30.3	30.3	69	21.4	0	1	338	0.00	30.438 
21:00	30.1	30.1	30.1	69	21.2	0	1	338	0.00	30.438 
21:05	30.1	30.1	30.1	68	20.8	0	1	338	0.00	30.438 
21:10	30.0	30.0	30.0	68	20.7	0	0	---	0.00	30.438 
21:15	29.8	29.8	29.8	68	20.5	0	1	338	0.00	30.438 
21:20	29.8	29.8	29.8	68	20.5	0	0	---	0.00	30.438 
21:25	29.7	29.7	29.7	69	20.8	0	1	338	0.00	30.438 
21:30	29.7	29.7	29.7	69	20.8	0	0	---	0.00	30.436 
21:35	29.7	29.7	29.7	69	20.8	0	0	---	0.00	30.436 
21:40	29.7	29.7	29.7	69	20.8	0	0	---	0.00	30.436 
21:45	29.7	29.7	29.7	69	20.8	0	0	---	0.00	30.435 
21:50	29.7	29.7	29.7	69	20.8	0	0	---	0.00	30.435 
21:55	29.7	29.7	29.7	70	21.1	0	1	338	0.00	30.435 
22:00	29.7	29.7	29.7	70	21.1	0	1	338	0.00	30.432 
22:05	29.8	29.8	29.8	69	20.9	0	2	338	0.00	30.432 
22:10	29.8	29.8	29.8	69	20.9	0	0	---	0.00	30.432 
22:15	29.8	29.8	29.8	69	20.9	0	1	338	0.00	30.423 
22:20	29.8	29.8	29.8	69	20.9	0	1	338	0.00	30.423 
22:25	29.8	29.8	29.8	69	20.9	0	1	338	0.00	30.423 
22:30	29.8	29.8	29.8	70	21.2	0	0	---	0.00	30.422 
22:35	29.8	29.8	29.8	70	21.2	0	0	---	0.00	30.422 
22:40	29.8	29.8	29.8	70	21.2	0	0	---	0.00	30.422 
22:45	29.8	29.8	29.8	70	21.2	0	0	---	0.00	30.417 
22:50	29.8	29.8	29.8	70	21.2	0	0	---	0.00	30.417 
22:55	29.8	29.8	29.8	71	21.6	0	0	---	0.00	30.417 
23:00	29.8	29.8	29.8	71	21.6	0	0	---	0.00	30.416 
23:05	29.7	29.7	29.7	71	21.5	0	1	338	0.00	30.416 
23:10	29.7	29.7	29.7	71	21.5	0	1	338	0.00	30.416 
23:15	29.7	29.7	29.7	70	21.1	0	1	338	0.00	30.418 
23:20	29.5	29.5	29.5	70	20.9	0	1	338	0.00	30.418 
23:25	29.5	29.5	29.5	70	20.9	0	0	---	0.00	30.418 
23:30	29.5	29.5	29.5	70	20.9	0	0	---	0.00	30.419 
23:35	29.5	29.5	29.5	70	20.9	0	1	338	0.00	30.419 
23:40	29.5	29.5	29.5	70	20.9	0	0	---	0.00	30.419 
23:45	29.5	29.5	29.5	70	20.9	0	0	---	0.00	30.405 
23:50	29.4	29.4	29.4	70	20.8	0	0	---	0.00	30.405 
23:55	29.5	29.5	29.5	71	21.3	0	1	338	0.00	30.405 

CoCoRaHS
IN-AL-39
A2 Web Hosting
Creative Commons License
GoDaddy
search engine by freefind advanced

loaded 2018-11-13 22:00:21 • last modified 2010-11-18 10:43:29
Privacy PolicyDisclaimer
• wx.awcolley.com is powered by PmWiki v.2002016 •
• all content (unless otherwise noted) © 2018 A W Colley